This is the latest recevied weather packets stored in our database for station/object KY4JDC. If no packets are shown the sender has not sent any weather packets the latest 10 day(s).
| Time | Temp. | Humidity | Pressure | Rain* | Wind** | Luminosity | Snow |
|---|---|---|---|---|---|---|---|
| 1787412540 | 30° C | 65% | 1018 hPa | 0 mm | - | 554 W/m² | - |
| 1787412235 | 29.44° C | 67% | 1018.2 hPa | 0 mm | - | 534 W/m² | - |
| 1787411932 | 28.89° C | 66% | 1018.1 hPa | 0 mm | - | 523 W/m² | - |
| 1787411629 | 28.89° C | 67% | 1017.8 hPa | 0 mm | - | 499 W/m² | - |
| 1787411323 | 28.89° C | 68% | 1018.3 hPa | 0 mm | - | 488 W/m² | - |
| 1787411019 | 28.33° C | 69% | 1017.8 hPa | 0 mm | - | 490 W/m² | - |
| 1787410715 | 27.78° C | 69% | 1017.8 hPa | 0 mm | - | 265 W/m² | - |
| 1787410411 | 27.78° C | 68% | 1018.1 hPa | 0 mm | - | 487 W/m² | - |
| 1787410105 | 27.78° C | 71% | 1018 hPa | 0 mm | - | 449 W/m² | - |
| 1787409802 | 27.22° C | 73% | 1017.9 hPa | 0 mm | - | 425 W/m² | - |
| 1787409498 | 27.22° C | 71% | 1017.8 hPa | 0 mm | - | 403 W/m² | - |
| 1787409193 | 26.67° C | 75% | 1018 hPa | 0 mm | - | 381 W/m² | - |
| 1787408889 | 26.67° C | 74% | 1018.1 hPa | 0 mm | - | 222 W/m² | - |
| 1787408584 | 26.67° C | 75% | 1017.9 hPa | 0 mm | - | 146 W/m² | - |
| 1787408279 | 26.11° C | 75% | 1018 hPa | 0 mm | - | 173 W/m² | - |
| 1787407975 | 26.11° C | 76% | 1018 hPa | 0 mm | - | 170 W/m² | - |
| 1787407670 | 26.11° C | 76% | 1018.2 hPa | 0 mm | - | 125 W/m² | - |
| 1787407366 | 26.11° C | 77% | 1018.1 hPa | 0 mm | - | 192 W/m² | - |
| 1787407061 | 25.56° C | 77% | 1018 hPa | 0 mm | - | 166 W/m² | - |
| 1787406757 | 25.56° C | 78% | 1018.2 hPa | 0 mm | - | 169 W/m² | - |
| 1787406452 | 25° C | 80% | 1018.1 hPa | 0 mm | - | 292 W/m² | - |
| 1787406148 | 24.44° C | 82% | 1018 hPa | 0 mm | - | 139 W/m² | - |
| 1787405844 | 24.44° C | 83% | 1018.4 hPa | 0 mm | - | 141 W/m² | - |
| 1787405541 | 23.89° C | 85% | 1018.3 hPa | 0 mm | - | 92 W/m² | - |
| 1787405240 | 23.33° C | 87% | 1018.1 hPa | 0 mm | - | 82 W/m² | - |
* Rain latest hour (hover to see other rain measurements)
** Current wind speed in m/s (hover to see current wind gust speed)